SCP
0 0 0 0 0 1 1 1 0 0 0 0 0 0 0 0 0 0 0 0 0 0 0 0 0 0 0 0 0 0 0 0 0 0 0 0 0 0 0 0 0 0 0
0 0 0 0 0 1 1 0 0 0 0 0 0 0 0 0 0 0 0 0 0 0 0 0 0 0 0 0 0 0 0 0 0 0 0 0 0 0 0 0 0 0 0
0 0 0 0 0 0 0 0 0 0 0 0 0 0 0 0 0 0 0 0 0 0 0 0 0 0 0 0 0 0 0 0 0 0 0 0 0 0 0 0 0 0 0
0 0 0 0 0 0 0 0 0 0 0 0 0 0 0 0 0 0 0 0 0 0 0 0 0 0 0 0 0 0 0 0 0 0 0 0 0 0 0 0 0 0 0
0 0 0 0 0 0 0 0 0 0 0 0 0 0 0 0 0 0 0 0 0 0 0 0 0 0 0 0 0 0 0 0 0 0 0 0 0 0 0 0 0 0 0
0 0 0 0 0 0 0 0 0 0 0 0 0 0 0 0 0 0 0 0 0 0 0 0 0 0 0 0 0 0 0 0 0 0 0 0 0 0 0 0 0 0 0
0 0 0 0 0 0 0 0 0 0 0 0 0 0 0 0 0 0 0 0 0 0 0 0 0 0 0 0 0 0 0 0 0 0 0 0 0 0 0 0 0 0 0
0 0 0 0 0 0 0 0 0 0 0 0 0 0 0 0 0 0 0 0 0 0 0 0 0 0 0 0 0 0 0 0 0 0 0 0 0 0 0 0 0 0 0
0 0 0 0 0 0 0 0 0 0 0 0 0 0 0 0 0 0 0 0 0 0 0 0 0 0 0 0 0 0 0 0 0 0 0 0 0 0 0 0 0 0 0
0 0 0 0 0 0 0 0 0 0 0 0 0 0 0 0 0 0 0 0 0 0 0 0 0 0 0 0 0 0 0 0 0 0 0 0 0 0 0 0 0 0 0
0 0 0 0 0 0 0 0 0 0 0 0 0 0 0 0 0 0 0 0 0 0 0 0 0 0 0 0 0 0 0 0 0 0 0 0 0 0 0 0 0 0 0
0 0 0 0 0 0 0 0 0 0 0 0 0 0 0 0 0 0 0 0 0 0 0 0 0 0 0 0 0 0 0 0 0 0 0 0 0 0 0 0 0 0 0
0 0 0 0 0 0 0 0 0 0 0 0 0 0 0 0 0 0 0 0 0 0 0 0 0 0 0 0 0 0 0 0 0 0 0 0 0 0 0 0 0 0 0
0 0 0 0 0 0 0 0 0 0 0 0 0 0 0 0 0 0 0 0 0 0 0 0 0 0 0 0 0 0 0 0 0 0 0 0 0 0 0 0 0 0 0
0 0 0 0 0 0 0 0 0 0 0 0 0 0 0 0 0 0 0 0 0 0 0 0 0 0 0 0 0 0 0 0 0 0 0 0 0 0 0 0 0 0 0
0 0 0 0 0 0 0 0 0 0 0 0 0 0 0 0 0 0 0 0 0 0 0 0 0 0 0 0 0 0 0 0 0 0 0 0 0 0 0 0 0 0 0
0 0 0 0 0 0 0 0 0 0 0 0 0 0 0 0 0 0 0 0 0 0 0 0 0 0 0 0 0 0 0 0 0 0 0 0 0 0 0 0 0 0 0
0 0 0 0 0 0 0 0 0 0 0 0 0 0 0 0 0 0 0 0 0 0 0 0 0 0 0 0 0 0 0 0 0 0 0 0 0 0 0 0 0 0 0
0 0 0 0 0 0 0 0 0 0 0 0 0 0 0 0 0 0 0 0 0 0 0 0 0 0 0 0 0 0 0 0 0 0 0 0 0 0 0 0 0 0 0
0 0 0 0 0 0 0 0 0 0 0 0 0 0 0 0 0 0 0 0 0 0 0 0 0 0 0 0 0 0 0 0 0 0 0 0 0 0 0 0 0 0 0
0 0 0 0 0 0 0 0 0 0 0 0 0 0 0 0 0 0 0 0 0 0 0 0 0 0 0 0 0 0 0 0 0 0 0 0 0 0 0 0 0 0 0
-0 0 0 0 0 0 0 0 0 0 0 0 0 0 0 0 0 0 0 0 0 0 0 0 0 0 0 0 0 0 0 0 0 0 0 0 0 0 0 0 0 0 0
-0 0 0 0 0 0 0 0 0 0 0 0 0 0 0 0 0 0 0 0 0 0 0 0 0 0 0 0 0 0 0 0 0 0 0 0 0 0 0 0 0 0 0
0 0 0 0 0 0 0 0 0 0 0 0 0 0 0 0 0 0 0 0 0 0 0 0 0 0 0 0 0 0 0 0 0 0 0 0 0 0 0 0 0 0 0
0 0 0 0 0 0 0 0 0 0 0 0 0 0 0 0 0 0 0 0 0 0 0 0 0 0 0 0 0 0 0 0 0 0 0 0 0 0 0 0 0 0 0
0 0 0 0 0 0 0 0 0 0 0 0 0 0 0 0 0 0 0 0 0 0 0 0 0 0 0 0 0 0 0 0 0 0 0 0 0 0 0 0 0 0 0
Wind_Speed
3 2 2 3 3 2 2 2 2 2 2 2 1 1 1 1 2 2 3 3 3 3 2 2 3 3 2 3 3 2 2 2 2 2 3 3 3 3 2 2 2 2 2
3 3 3 3 3 3 2 2 2 2 1 1 1 1 0 0 1 1 2 3 3 3 2 2 2 2 2 3 3 2 1 2 2 1 2 3 3 2 2 1 1 1 1
6 5 4 4 3 3 4 3 3 2 1 1 1 1 1 1 2 2 2 3 3 3 2 2 2 2 2 2 2 2 1 2 2 1 1 1 2 3 2 2 1 1 1
4 4 4 4 4 4 3 3 3 2 2 2 2 2 1 0 1 1 2 3 3 3 2 2 2 2 2 2 2 2 2 1 2 2 1 2 2 2 3 2 2 2 1
4 5 5 5 4 3 3 2 2 2 2 2 2 2 1 1 1 1 2 2 2 2 2 2 2 2 2 2 2 2 2 2 2 2 2 2 2 3 3 4 3 2 2
3 4 3 3 2 2 2 2 2 2 2 2 2 2 2 2 1 2 2 2 2 2 2 2 2 2 2 2 2 2 3 3 3 2 2 2 2 2 3 4 4 4 3
3 3 3 3 3 3 3 3 3 3 3 3 3 3 3 3 3 2 2 2 2 2 3 2 2 2 2 2 2 2 3 3 3 3 3 3 3 3 3 4 4 4 3
2 3 4 4 4 4 4 4 4 4 3 3 3 3 3 2 2 3 2 3 2 3 3 2 2 3 3 3 2 2 3 2 2 3 3 3 3 3 3 3 3 4 4
2 3 3 3 4 4 4 5 4 4 3 3 3 3 3 3 3 3 2 2 3 3 3 2 3 3 3 3 2 2 3 2 2 3 3 3 3 3 3 3 3 4 5
1 2 2 3 3 3 3 3 4 4 4 3 3 3 3 3 3 2 3 3 3 3 3 3 3 3 3 3 2 2 3 3 3 2 3 3 2 2 2 2 3 3 4
3 3 3 2 2 2 2 3 3 3 3 3 3 3 3 3 3 3 3 3 3 3 3 3 3 3 3 3 2 3 3 3 3 2 2 3 3 2 2 2 2 3 3
3 3 3 2 2 2 2 3 3 4 4 3 3 3 3 3 3 4 4 3 3 3 3 3 3 3 3 3 3 4 3 3 3 3 3 3 3 3 3 3 3 3 3
4 3 2 3 3 3 3 3 3 4 3 3 3 3 3 4 4 4 4 3 3 3 3 3 3 4 4 3 3 4 4 3 3 3 3 3 3 3 3 3 3 3 3
4 4 3 4 3 3 3 3 4 3 3 3 3 4 5 5 5 4 4 4 3 3 3 4 4 4 4 4 4 3 4 4 3 3 3 4 4 4 4 3 4 3 3
5 5 4 4 4 4 4 3 4 3 3 3 4 5 5 4 4 4 4 4 4 4 4 4 4 4 4 4 4 4 3 4 4 4 4 4 5 6 4 3 3 3 3
6 5 5 5 5 5 4 4 4 4 3 4 5 5 4 4 4 4 4 4 4 4 4 4 4 4 4 6 7 5 3 3 4 4 4 4 5 5 6 7 6 4 4
6 6 5 5 5 5 5 5 4 3 3 4 5 4 4 5 5 4 4 4 4 4 4 4 4 5 6 8 8 7 3 3 4 4 4 4 4 4 4 5 6 6 7
6 6 5 5 4 4 4 4 3 3 4 4 5 5 4 5 4 4 5 5 4 4 4 4 5 5 6 8 8 7 3 3 4 4 4 4 4 4 4 3 3 4 4
5 5 5 4 4 4 3 3 3 3 4 5 5 5 5 5 4 5 6 5 4 4 4 4 4 5 6 8 8 6 2 3 4 4 4 4 4 6 6 3 3 4 4
4 4 4 3 3 4 3 3 4 4 6 6 6 5 5 5 6 6 5 4 4 5 4 4 4 4 5 7 7 6 2 3 3 3 3 5 5 6 6 3 3 4 4
5 4 3 3 4 3 2 4 4 6 6 5 5 5 5 5 5 5 4 3 4 3 3 4 4 4 5 6 8 7 2 3 3 3 3 3 6 7 6 5 3 5 4
5 4 3 4 4 3 3 5 6 6 4 4 4 5 5 4 4 4 4 3 4 4 4 3 4 3 4 6 7 8 7 5 3 3 3 3 6 6 6 4 4 5 4
5 4 4 5 5 4 4 6 7 5 4 4 5 5 4 4 3 4 4 3 3 3 3 3 4 3 3 4 8 8 7 7 3 3 5 5 5 5 3 4 5 4 1
5 4 4 5 6 5 5 6 6 4 4 5 5 4 4 4 3 3 3 4 4 4 4 4 4 3 3 3 3 3 3 4 3 2 3 4 4 2 2 3 3 1 1
5 4 5 6 7 6 6 6 5 4 5 5 5 4 4 4 4 4 4 5 5 6 5 5 4 4 4 5 6 3 3 2 2 1 1 1 1 1 1 1 1 1 1
5 5 6 6 7 6 6 6 5 4 5 5 4 3 3 3 3 3 3 5 6 8 9 8 6 5 7 7 7 7 7 6 5 2 2 2 2 2 2 2 2 2 2
Wind_Direction
223 183 176 163 145 143 140 136 123 108 95 85 80 57 24 14 19 19 17 16 14 10 18 8 357 357 355 343 339 329 328 327 319 317 311 290 260 255 257 254 254 251 244
211 193 181 173 171 172 170 161 155 139 128 123 132 138 155 321 331 352 5 5 5 359 5 6 352 354 347 348 350 343 328 330 352 344 325 320 320 302 274 270 259 274 275
207 200 194 193 185 192 189 178 172 154 147 125 99 79 56 21 5 358 352 347 348 350 349 347 345 345 343 331 335 328 320 312 325 330 272 285 284 313 305 292 290 308 316
205 199 196 199 203 207 193 184 169 157 150 139 133 139 146 210 270 295 311 325 341 341 340 342 340 335 333 320 313 325 307 288 294 298 272 258 278 288 303 308 308 303 292
202 204 204 202 202 193 187 191 170 165 160 153 161 160 188 218 263 301 315 322 328 331 337 335 332 326 317 309 307 307 295 280 266 271 281 278 269 251 262 282 295 300 280
208 214 211 189 190 180 177 184 177 189 176 175 178 180 205 225 264 298 306 310 314 319 328 330 330 320 313 305 299 293 286 279 273 270 263 261 262 259 257 268 282 286 279
198 205 204 199 200 197 194 192 194 212 201 194 196 197 208 213 226 254 274 289 300 302 309 321 315 311 306 306 304 301 294 286 278 270 268 265 266 268 262 266 278 281 283
207 213 215 210 210 208 200 198 207 221 211 206 213 209 208 213 230 236 245 261 268 277 292 297 301 301 304 308 308 302 297 294 283 281 276 273 272 268 261 257 267 282 282
228 232 231 220 216 214 213 211 213 224 223 217 215 215 214 216 233 244 247 260 266 275 284 285 291 296 298 294 293 286 287 287 280 277 278 274 276 278 273 265 254 258 275
264 263 252 240 236 226 222 216 216 222 226 220 221 223 225 227 230 237 249 257 267 271 278 282 283 291 294 292 287 284 285 285 282 278 281 284 283 283 278 273 267 256 257
264 261 256 245 244 244 234 230 229 228 228 223 222 228 235 233 231 235 245 250 260 263 267 270 274 279 283 286 281 278 284 280 285 289 285 287 289 285 281 272 268 266 260
275 263 256 247 243 249 251 243 237 233 234 226 225 233 238 232 232 240 245 243 250 256 257 261 266 271 276 274 270 276 278 272 276 280 280 285 290 284 281 275 268 264 261
287 276 265 252 249 249 249 248 243 240 241 230 232 241 241 235 237 240 241 239 241 252 256 253 257 264 268 267 264 263 267 266 267 270 269 277 281 284 287 283 274 268 267
275 267 263 256 254 254 253 254 254 245 241 232 232 240 240 234 236 238 236 235 233 239 248 251 253 257 261 261 260 261 264 266 266 265 263 267 265 266 271 276 279 274 268
273 260 253 253 253 258 259 254 253 248 237 235 238 243 245 237 233 234 236 235 233 238 241 247 255 257 255 254 253 253 257 258 265 269 267 267 268 267 269 273 276 278 275
263 262 257 252 251 251 254 254 251 249 237 240 247 251 248 242 237 236 235 234 239 242 239 242 249 256 259 266 266 260 247 250 256 267 272 277 276 277 280 282 279 272 267
264 262 258 249 250 249 243 244 245 246 242 248 253 249 243 242 242 240 234 236 240 240 244 247 249 254 260 268 268 262 247 239 248 256 263 275 279 284 281 285 291 288 280
265 263 257 254 253 250 249 251 249 242 245 252 254 250 243 244 244 236 236 240 239 237 243 248 248 255 263 266 266 266 245 238 249 252 255 261 274 276 279 281 282 280 280
256 255 251 249 251 252 247 249 254 250 249 251 251 249 244 244 240 237 239 238 234 240 242 247 245 251 263 265 262 263 225 242 256 259 258 258 265 279 285 284 280 286 293
266 262 259 253 252 254 241 241 253 253 253 252 252 250 243 240 240 240 239 235 229 238 240 247 243 246 256 260 256 253 220 241 259 264 261 265 270 280 288 277 270 279 287
279 276 267 257 254 249 233 248 256 254 256 259 258 254 247 243 243 241 239 231 230 232 235 246 249 245 249 258 255 251 225 230 248 256 261 266 281 283 284 281 265 272 287
284 279 269 267 264 243 227 249 257 259 264 264 264 261 257 252 244 235 239 226 217 226 237 245 256 247 250 253 257 256 248 241 234 246 253 262 279 285 289 289 281 291 303
275 270 259 268 270 249 227 246 259 262 264 266 267 266 263 256 240 229 233 228 214 219 234 238 250 257 242 249 254 257 256 251 241 244 252 263 277 289 294 290 296 305 307
271 268 261 263 270 263 247 247 259 257 252 257 264 264 258 258 249 236 225 220 217 219 227 235 244 252 247 240 244 250 251 249 250 252 258 270 271 270 276 300 308 304 264
272 264 257 261 266 267 262 259 253 244 247 252 256 256 252 251 250 244 232 225 223 218 220 227 228 235 245 244 239 233 229 220 224 222 208 236 268 272 289 298 295 293 291
268 266 263 262 267 267 266 265 251 233 235 249 251 247 249 249 246 250 268 252 243 247 244 242 237 242 247 256 246 240 237 233 226 211 214 232 234 243 252 263 275 276 267